[[{"header":{"parameterUnit":"m.s-1","parameterCategory":1,"la1":30.2991,"la2":30.254,"lo1":-89.0895,"lo2":-89.0444,"dy":0.0017,"dx":0.0017,"nx":28,"ny":28,"refTime":"2024-06-23T21:00:00:Z","depth":0,"parameterNumber":2,"parameterNumberName":"U-component_of_WINDS"},"data":[0,0,0,0,0,0,0,0,0,0,0,0,0,0,0,0,0,0,0,0,0,0,0,0,0,0,0,0,0,0,0,0,0,0,0,0,0,0,0,0,0,0,0,0,0,0,0,0,0,0,0,0,0,0,0,0,0,0,-0.9263,-0.9263,0,-0.9224,-0.9224,-0.9223,-0.9303,-0.9306,-0.9309,-0.9311,-0.9254,-0.925,-0.9246,0,0,0,0,0,0,0,0,0,0,0,0,0,-0.9392,-0.9389,-0.9263,-0.9263,-0.9262,-0.9224,-0.9224,-0.9223,-0.9303,-0.9306,-0.9309,-0.9312,-0.9255,-0.925,-0.9246,0,0,0,0,0,0,0,0,0,0,0,0,0,-0.9342,-0.9389,-0.9263,-0.9298,-0.9301,-0.9224,-0.9224,-0.9223,-0.9302,-0.9306,-0.931,-0.9314,-0.9257,-0.9251,-0.9245,-0.9128,0,0,-0.9227,-0.9224,0,0,0,0,0,0,0,0,-0.9345,-0.9338,-0.9293,-0.9296,-0.9299,-0.9273,-0.9248,-0.919,-0.9301,-0.9301,-0.9311,-0.9316,-0.9256,-0.925,-0.9234,-0.9125,-0.9123,-0.9226,-0.9222,-0.922,-0.9218,0,0,0,0,0,0,0,-0.9349,-0.934,-0.9247,-0.9293,-0.9296,-0.9311,-0.9308,-0.9238,-0.9256,-0.9301,-0.9307,-0.9302,-0.9258,-0.9239,-0.9233,-0.9122,-0.9226,-0.9221,-0.9217,-0.9215,-0.8914,-0.8909,0,0,0,0,0,0,-0.935,-0.9342,-0.9249,-0.9246,-0.9333,-0.9305,-0.9302,-0.9277,-0.9257,-0.9258,-0.9299,-0.9306,-0.9248,-0.924,-0.9231,-0.9092,-0.922,-0.9214,-0.9211,-0.8918,-0.8913,-0.8908,0,0,0,0,0,0,-0.9352,-0.9341,-0.925,-0.9296,-0.9286,-0.9299,-0.927,-0.9274,-0.9256,-0.9256,-0.9258,-0.9278,-0.925,-0.924,-0.9154,-0.9091,-0.9212,-0.9206,-0.8923,-0.8916,-0.891,-0.8812,0,0,0,0,0,0,-0.9356,-0.9341,-0.93,-0.9295,-0.9283,-0.9178,-0.9266,-0.927,-0.9247,-0.9256,-0.9236,-0.9236,-0.9253,-0.9162,-0.9148,-0.9085,-0.9201,-0.8929,-0.892,-0.8912,-0.8821,-0.8803,-0.8788,0,0,0,0,0,-0.936,-0.9271,-0.9298,-0.9286,-0.9233,-0.9174,-0.9167,-0.9193,-0.9242,-0.9198,-0.9198,-0.9237,-0.9101,-0.9153,-0.9137,-0.9071,-0.8933,-0.8922,-0.8913,-0.8828,-0.8807,-0.8788,0,0,0,0,0,0,-0.9263,-0.9271,-0.9301,-0.9208,-0.9191,-0.9188,-0.9134,-0.9169,-0.9133,-0.9142,-0.917,-0.9165,-0.9072,-0.9063,-0.9122,-0.8956,-0.9024,-0.9011,-0.8965,-0.8944,-0.8928,-0.8931,-0.9196,0,0,0,0,0,-0.9232,-0.9189,-0.9196,-0.9113,-0.9104,-0.912,-0.9096,-0.9118,-0.9098,-0.909,-0.9083,-0.9058,-0.901,-0.8977,-0.8933,-0.8821,-0.8816,-0.8768,-0.8751,-0.8737,-0.8724,-0.8662,-0.864,-0.8875,-0.8875,-0.8876,0,0,-0.9165,-0.9164,-0.9134,-0.9094,-0.9083,-0.9033,-0.9113,-0.9057,-0.9018,-0.9079,-0.8999,-0.8994,-0.8967,-0.8868,-0.8824,-0.8857,-0.8659,-0.8725,-0.8714,-0.8708,-0.865,-0.8627,-0.8607,-0.8869,-0.887,-0.8871,0,0,-0.9017,-0.9014,-0.8945,-0.8933,-0.8918,-0.893,-0.8913,-0.8906,-0.8906,-0.8828,-0.8872,-0.8824,-0.8741,-0.8721,-0.8699,-0.8545,-0.8577,-0.8529,-0.8441,-0.838,-0.8361,-0.8345,-0.8287,-0.8267,-0.8517,-0.8516,-0.8516,0,-0.8934,-0.8866,-0.8903,-0.8845,-0.8824,-0.8883,-0.881,-0.8795,-0.8763,-0.8745,-0.8786,-0.8683,-0.8669,-0.8565,-0.8528,-0.851,-0.8487,-0.853,-0.8362,-0.8346,-0.8331,-0.8276,-0.8255,-0.8511,-0.8511,-0.8512,-0.8512,0,-0.8764,-0.8716,-0.8661,-0.8635,-0.8608,-0.8542,-0.8564,-0.8532,-0.8556,-0.8562,-0.848,-0.8467,-0.842,-0.8398,-0.8418,-0.8295,-0.8317,-0.8359,-0.8427,-0.8302,-0.8251,-0.8231,-0.8502,-0.8504,-0.8506,-0.8507,0,0,-0.8552,-0.855,-0.8528,-0.8517,-0.8505,-0.8466,-0.8401,-0.8362,-0.8332,-0.8308,-0.8251,-0.8181,-0.822,-0.8196,-0.8215,-0.8162,-0.8038,-0.821,-0.821,-0.8176,-0.7898,-0.7865,-0.7841,-0.8061,-0.8058,-0.8054,-0.79,0,-0.8405,-0.83,-0.8331,-0.8223,-0.8177,-0.8233,-0.8176,-0.8159,-0.8163,-0.8121,-0.8123,-0.8072,-0.813,-0.8115,-0.8066,-0.8064,-0.7982,-0.8076,-0.8003,-0.8,-0.8006,-0.7814,-0.7779,-0.7634,-0.788,-0.7877,-0.7875,0,-0.8218,-0.8193,-0.8082,-0.8078,-0.806,-0.8009,-0.7975,-0.7935,-0.7916,-0.7923,-0.7897,-0.7926,-0.7857,-0.7929,-0.7832,-0.7895,-0.7867,-0.7862,-0.7857,-0.7848,-0.7928,-0.7798,-0.7588,-0.7565,-0.7844,-0.7846,-0.7849,0,-0.8072,-0.801,-0.7936,-0.7924,-0.7918,-0.788,-0.7875,-0.7861,-0.7835,-0.7803,-0.7786,-0.7744,-0.7721,-0.7685,-0.7701,-0.7753,-0.76,-0.7673,-0.7599,-0.7598,-0.7561,-0.7563,-0.7341,-0.7548,-0.7548,-0.7549,-0.7549,0,-0.7903,-0.7832,-0.787,-0.7824,-0.7745,-0.778,-0.7699,-0.7699,-0.7686,-0.7637,-0.7681,-0.7633,-0.7659,-0.7611,-0.7622,-0.7538,-0.7527,-0.7527,-0.753,-0.7522,-0.7521,-0.7501,-0.7511,-0.7543,-0.7544,-0.7545,-0.7546,0,-0.7725,-0.7748,-0.7671,-0.7673,-0.7672,-0.7613,-0.7612,-0.7566,-0.7576,-0.7513,-0.75,-0.7511,-0.7457,-0.7471,-0.741,-0.7418,-0.7312,-0.7329,-0.732,-0.7323,-0.7247,-0.7253,-0.7002,-0.697,-0.72,-0.7198,-0.7196,0,-0.7615,-0.7562,-0.756,-0.7534,-0.7527,-0.7482,-0.7458,-0.7489,-0.746,-0.7435,-0.7392,-0.7343,-0.7306,-0.7216,-0.7215,-0.7169,-0.7183,-0.7099,-0.7176,-0.7169,-0.7179,-0.7181,-0.7174,-0.7082,-0.708,-0.7078,-0.7076,0,-0.7415,-0.743,-0.7396,-0.7365,-0.7335,-0.7311,-0.729,-0.7264,-0.7294,-0.7258,-0.7207,-0.7179,-0.712,-0.7069,-0.7027,-0.7015,-0.7048,-0.7053,-0.7032,-0.7021,-0.7018,-0.7016,-0.7275,-0.7057,-0.7059,-0.706,-0.7061,-0.7062,-0.7266,-0.7222,-0.7214,-0.7174,-0.7163,-0.7142,-0.71,-0.7106,-0.7066,-0.7024,-0.7044,-0.6983,-0.6963,-0.6911,-0.6895,-0.6844,-0.6876,-0.6847,-0.6839,-0.6831,-0.682,-0.7029,-0.6837,-0.6837,-0.6838,-0.6838,-0.6839,0,-0.7067,-0.7066,-0.7029,-0.7001,-0.6968,-0.701,-0.6988,-0.6956,-0.6905,-0.6887,-0.6851,-0.679,-0.6742,-0.6739,-0.6692,-0.6652,-0.6666,-0.6638,-0.664,-0.6636,-0.6796,-0.6818,-0.6628,-0.6628,-0.6628,-0.6628,-0.6628,-0.6628,-0.696,-0.6887,-0.69,-0.6821,-0.6819,-0.6765,-0.6749,-0.6729,-0.6715,-0.6648,-0.661,-0.6611,-0.6596,-0.655,-0.6505,-0.6505,-0.6484,-0.645,-0.6455,-0.6604,-0.6625,-0.6645,-0.6665,-0.6446,-0.6446,-0.6299,-0.6297,-0.6296]},{"header":{"parameterUnit":"m.s-1","parameterCategory":1,"la1":30.2991,"la2":30.254,"lo1":-89.0895,"lo2":-89.0444,"dy":0.0017,"dx":0.0017,"nx":28,"ny":28,"refTime":"2024-06-23T21:00:00:Z","depth":0,"parameterNumber":3,"parameterNumberName":"V-component_of_WINDS"},"data":[0,0,0,0,0,0,0,0,0,0,0,0,0,0,0,0,0,0,0,0,0,0,0,0,0,0,0,0,0,0,0,0,0,0,0,0,0,0,0,0,0,0,0,0,0,0,0,0,0,0,0,0,0,0,0,0,0,0,1.0527,1.0526,0,1.0456,1.0455,1.0454,1.0378,1.0377,1.0376,1.0375,1.0301,1.03,1.0299,0,0,0,0,0,0,0,0,0,0,0,0,0,1.0594,1.0593,1.0527,1.0526,1.0526,1.0456,1.0455,1.0454,1.0379,1.0377,1.0376,1.0375,1.0302,1.03,1.0299,0,0,0,0,0,0,0,0,0,0,0,0,0,1.0548,1.0593,1.0527,1.048,1.0474,1.0456,1.0455,1.0454,1.0379,1.0377,1.0376,1.0374,1.0302,1.0301,1.0299,1.0322,0,0,1.0295,1.0294,0,0,0,0,0,0,0,0,1.0551,1.0546,1.0487,1.0483,1.0477,1.0424,1.0451,1.041,1.0379,1.0415,1.0375,1.0373,1.0343,1.0338,1.0329,1.0319,1.0315,1.0294,1.0294,1.0293,1.0293,0,0,0,0,0,0,0,1.0554,1.0548,1.0499,1.0487,1.048,1.046,1.0452,1.0443,1.0389,1.0412,1.0406,1.0399,1.034,1.033,1.0326,1.0314,1.0295,1.0293,1.0292,1.0292,1.0317,1.0318,0,0,0,0,0,0,1.0565,1.0551,1.0501,1.0497,1.0511,1.046,1.0451,1.0443,1.0389,1.0379,1.04,1.0396,1.0334,1.0328,1.0323,1.0347,1.0293,1.0292,1.0291,1.0315,1.0317,1.0319,0,0,0,0,0,0,1.0567,1.0561,1.0504,1.0523,1.0514,1.0461,1.0452,1.0442,1.0432,1.038,1.037,1.04,1.0332,1.0325,1.0322,1.0343,1.0291,1.029,1.0313,1.0316,1.0318,1.0394,0,0,0,0,0,0,1.0569,1.0562,1.0572,1.0523,1.0513,1.0507,1.0454,1.0442,1.043,1.0423,1.0378,1.0368,1.033,1.0325,1.0321,1.034,1.0288,1.0311,1.0314,1.0317,1.039,1.0399,1.0407,0,0,0,0,0,1.0571,1.0597,1.0573,1.0567,1.0524,1.0508,1.0502,1.0458,1.0432,1.0441,1.0406,1.037,1.034,1.0325,1.032,1.0339,1.031,1.0313,1.0317,1.0386,1.0397,1.0406,0,0,0,0,0,0,1.065,1.059,1.0563,1.0573,1.0546,1.0495,1.0505,1.0471,1.0451,1.0446,1.039,1.0381,1.0384,1.036,1.0345,1.0357,1.032,1.0322,1.0374,1.0384,1.0392,1.04,1.0287,0,0,0,0,0,1.0668,1.0661,1.0607,1.0622,1.0609,1.0559,1.0551,1.0518,1.0488,1.0477,1.0442,1.0414,1.0397,1.0388,1.0371,1.0383,1.0372,1.0393,1.0402,1.0409,1.0414,1.0417,1.0426,1.033,1.033,1.033,0,0,1.0706,1.0672,1.0671,1.0636,1.0612,1.0605,1.0551,1.0546,1.0539,1.0475,1.0472,1.0444,1.0408,1.0413,1.0413,1.0394,1.0436,1.0413,1.042,1.042,1.0422,1.0431,1.0439,1.0332,1.0332,1.0331,0,0,1.0773,1.0746,1.0755,1.0731,1.0693,1.0659,1.0661,1.0614,1.0594,1.0588,1.054,1.0529,1.0503,1.0479,1.0464,1.0515,1.0481,1.051,1.0557,1.0561,1.0569,1.0575,1.0595,1.0603,1.0514,1.0514,1.0514,0,1.0826,1.0815,1.0764,1.0761,1.0747,1.0686,1.0694,1.0672,1.0631,1.0622,1.0599,1.0563,1.0535,1.0533,1.0545,1.0534,1.0534,1.0519,1.0572,1.0578,1.0583,1.0601,1.0609,1.0518,1.0518,1.0517,1.0517,0,1.0882,1.0873,1.0884,1.0846,1.0832,1.0835,1.0783,1.0774,1.0741,1.0708,1.0702,1.0664,1.0637,1.0633,1.0601,1.0626,1.0614,1.0582,1.0544,1.0597,1.0614,1.062,1.0524,1.0522,1.0521,1.052,0,0,1.1003,1.0933,1.0938,1.0919,1.0871,1.0863,1.086,1.0834,1.0828,1.0799,1.0796,1.0772,1.0741,1.0724,1.0687,1.069,1.0734,1.0657,1.0655,1.0675,1.0759,1.0787,1.0796,1.0708,1.0709,1.071,1.0763,0,1.1064,1.106,1.1011,1.102,1.1011,1.095,1.0948,1.0917,1.0884,1.0871,1.0833,1.0819,1.0778,1.0767,1.0767,1.0729,1.0751,1.0724,1.0706,1.0706,1.0722,1.0804,1.0834,1.0886,1.0768,1.0769,1.077,0,1.1137,1.1113,1.1121,1.107,1.1064,1.1064,1.1034,1.1022,1.0983,1.0959,1.0937,1.0895,1.0887,1.0847,1.0835,1.0817,1.0805,1.0785,1.0785,1.0786,1.0745,1.081,1.0902,1.0911,1.0779,1.0779,1.0778,0,1.1229,1.1197,1.1197,1.1182,1.1122,1.1123,1.1098,1.1058,1.1044,1.1016,1.1006,1.0978,1.0963,1.0941,1.0891,1.0866,1.0884,1.084,1.0864,1.0866,1.0876,1.0877,1.0971,1.0861,1.0861,1.0861,1.0861,0,1.1305,1.1313,1.1237,1.1239,1.1244,1.1185,1.1192,1.116,1.1124,1.1117,1.1059,1.1053,1.0985,1.097,1.093,1.0926,1.0919,1.0899,1.0889,1.0907,1.091,1.0903,1.09,1.0863,1.0863,1.0862,1.0862,0,1.1412,1.1361,1.1358,1.1299,1.1284,1.1291,1.1241,1.1238,1.1199,1.119,1.1184,1.1123,1.1102,1.1048,1.1013,1.0985,1.0993,1.0972,1.1008,1.1002,1.103,1.103,1.1127,1.1137,1.1017,1.1018,1.1019,0,1.1467,1.1471,1.1413,1.1403,1.1381,1.1366,1.1351,1.1291,1.1277,1.1231,1.1234,1.1207,1.1185,1.1152,1.1105,1.1076,1.1056,1.1091,1.1052,1.1069,1.1061,1.1063,1.1063,1.1103,1.1104,1.1106,1.1107,0,1.1571,1.1544,1.1526,1.1497,1.148,1.1455,1.1426,1.142,1.1352,1.1339,1.1317,1.1298,1.126,1.1236,1.1198,1.117,1.1128,1.1118,1.1123,1.1144,1.1166,1.1157,1.1036,1.1118,1.1117,1.1116,1.1115,1.1115,1.1656,1.1656,1.1615,1.1595,1.1566,1.1539,1.1533,1.1492,1.1473,1.1439,1.1402,1.1384,1.134,1.1287,1.126,1.1243,1.1221,1.1227,1.123,1.1233,1.1242,1.1163,1.1235,1.1235,1.1234,1.1234,1.1234,0,1.176,1.1729,1.171,1.1671,1.1655,1.1612,1.1577,1.1566,1.155,1.1514,1.1491,1.1463,1.1437,1.1384,1.1353,1.1349,1.1328,1.1343,1.1346,1.134,1.1262,1.1263,1.136,1.136,1.136,1.136,1.136,1.136,1.1813,1.1812,1.178,1.1763,1.173,1.1713,1.1696,1.1669,1.164,1.1612,1.159,1.1555,1.1511,1.1475,1.1448,1.1433,1.1425,1.1447,1.1426,1.1357,1.1345,1.1334,1.1335,1.1445,1.1445,1.1505,1.1506,1.1506]}]]